Torna al catalogo

STARLINK-35920

AttivoComunicazioniVLEO
NORAD 66623·PAYLOAD·🇺🇸 United States

Lanciato Nov 23, 2025 da Vandenberg Space Force Base

Loading…

Prossimi Passaggi (prossime 24 ore)

TLE

AggiornatoSource: CelesTrak SupGP

Epoca: Sep 14, 2026, 21:31 UTC

1 66623C 25271G   26257.89701389 -.00080811  00000+0 -23912-2 0  2572
2 66623  53.1600 336.1319 0001140  80.9988 329.8253 15.34383725    18

Traccia STARLINK-35920 in tempo reale con AllMySat

Download on the App Store